0 HST 1 20580U 90037B 26073.11865010 .00008763 00000-0 28927-3 0 9999 2 20580 28.4724 9.7854 0001781 169.7396 190.3236 15.29559924773995 0 ISS (ZARYA) 1 25544U 98067A 26072.70791847 .00011780 00000-0 22432-3 0 9993 2 25544 51.6324 52.4887 0007884 189.2977 170.7866 15.48633802556952 0 CXO 1 25867U 99040B 26074.17591503 .00001098 00000-0 00000+0 0 9997 2 25867 54.6015 119.5309 7987924 310.6410 0.3950 0.37797975 16963